Overview Statistics Trail Chart Weather Telemetry Raw packets
 

This is the latest recevied weather packets stored in our database for station/object NR6G-12. If no packets are shown the sender has not sent any weather packets the latest 10 day(s).

<< 16 17 18 19 20 21 22 >>
Time Temp. Humidity Pressure Rain* Wind** Luminosity Snow
1788539534 16.11° C 62% 1015.4 hPa 0 mm - - -
1788539174 16.11° C 63% 1015.4 hPa 0 mm - - -
1788538814 16.11° C 63% 1015.3 hPa 0 mm - - -
1788538454 15.56° C 62% 1015.2 hPa 0 mm - - -
1788538094 15.56° C 64% 1015.2 hPa 0 mm - - -
1788537374 16.11° C 62% 1015.3 hPa 0 mm - - -
1788537014 16.11° C 60% 1015.4 hPa 0 mm - - -
1788536294 16.67° C 62% 1015.5 hPa 0 mm - - -
1788535934 16.11° C 63% 1015.5 hPa 0 mm - - -
1788535574 15.56° C 64% 1015.6 hPa 0 mm - - -
1788535222 15.56° C 64% 1015.6 hPa 0 mm - - -
1788534494 15° C 65% 1015.5 hPa 0 mm - - -
1788534134 15° C 65% 1015.6 hPa 0 mm - - -
1788533774 15° C 65% 1015.6 hPa 0 mm - - -
1788533414 15° C 66% 1015.5 hPa 0 mm - - -
1788533054 15° C 67% 1015.5 hPa 0 mm - - -
1788532694 14.44° C 68% 1015.3 hPa 0 mm - - -
1788532333 14.44° C 69% 1015.4 hPa 0 mm - - -
1788531974 13.89° C 70% 1015.4 hPa 0 mm - - -
1788531614 13.33° C 71% 1015.3 hPa 0 mm - - -
1788531254 13.33° C 70% 1015.3 hPa 0 mm - - -
1788530893 13.33° C 70% 1015.2 hPa 0 mm - - -
1788530534 12.78° C 70% 1015.1 hPa 0 mm - - -
1788530174 12.78° C 70% 1015 hPa 0 mm - - -
1788529814 12.78° C 69% 1015 hPa 0 mm - - -

* Rain latest hour (hover to see other rain measurements)
** Current wind speed in m/s (hover to see current wind gust speed)